[[{"header":{"parameterUnit":"m.s-1","parameterCategory":1,"la1":30.2991,"la2":30.254,"lo1":-89.0895,"lo2":-89.0444,"dy":0.0017,"dx":0.0017,"nx":28,"ny":28,"refTime":"2023-10-03T21:00:00:Z","depth":0,"parameterNumber":2,"parameterNumberName":"U-component_of_WINDS"},"data":[0,0,0,0,0,0,0,0,0,0,0,0,0,0,0,0,0,0,0,0,0,0,0,0,0,0,0,0,0,0,0,0,0,0,0,0,0,0,0,0,0,0,0,0,0,0,0,0,0,0,0,0,0,0,0,0,0,0,-3.6609,-3.6609,0,-3.664,-3.6641,-3.6641,-3.6586,-3.6584,-3.6582,-3.658,-3.6612,-3.6614,-3.6617,0,0,0,0,0,0,0,0,0,0,0,0,0,-3.6503,-3.6505,-3.6609,-3.6609,-3.661,-3.664,-3.6641,-3.6641,-3.6586,-3.6584,-3.6581,-3.6579,-3.6611,-3.6614,-3.6617,0,0,0,0,0,0,0,0,0,0,0,0,0,-3.6543,-3.6506,-3.6609,-3.6586,-3.6584,-3.664,-3.6641,-3.6641,-3.6586,-3.6584,-3.6581,-3.6578,-3.661,-3.6614,-3.6618,-3.6697,0,0,-3.663,-3.6631,0,0,0,0,0,0,0,0,-3.6541,-3.6547,-3.6589,-3.6587,-3.6586,-3.6606,-3.6615,-3.666,-3.6587,-3.6586,-3.658,-3.6577,-3.6612,-3.6616,-3.6628,-3.6699,-3.67,-3.663,-3.6632,-3.6634,-3.6635,0,0,0,0,0,0,0,-3.6538,-3.6546,-3.6621,-3.6589,-3.6588,-3.6575,-3.6577,-3.6623,-3.6614,-3.6585,-3.6582,-3.6586,-3.6611,-3.6624,-3.6628,-3.6701,-3.663,-3.6633,-3.6636,-3.6637,-3.6841,-3.6844,0,0,0,0,0,0,-3.6538,-3.6544,-3.662,-3.6622,-3.6556,-3.6579,-3.6582,-3.6602,-3.6613,-3.6613,-3.6588,-3.6583,-3.6619,-3.6624,-3.6629,-3.6723,-3.6634,-3.6637,-3.664,-3.6838,-3.6842,-3.6845,0,0,0,0,0,0,-3.6536,-3.6546,-3.6619,-3.6582,-3.659,-3.6584,-3.6607,-3.6604,-3.6618,-3.6616,-3.6614,-3.6603,-3.6617,-3.6624,-3.6681,-3.6724,-3.6639,-3.6643,-3.6834,-3.6839,-3.6844,-3.6913,0,0,0,0,0,0,-3.6533,-3.6545,-3.6574,-3.6583,-3.6592,-3.667,-3.661,-3.6607,-3.6624,-3.6618,-3.6629,-3.6629,-3.6615,-3.6676,-3.6685,-3.6728,-3.6646,-3.683,-3.6837,-3.6842,-3.6907,-3.6919,-3.693,0,0,0,0,0,-3.653,-3.6592,-3.6576,-3.6586,-3.6629,-3.6672,-3.6678,-3.6661,-3.6628,-3.6658,-3.6658,-3.6628,-3.6719,-3.6682,-3.6692,-3.6736,-3.6828,-3.6835,-3.6842,-3.6901,-3.6917,-3.693,0,0,0,0,0,0,-3.6588,-3.6593,-3.6575,-3.6642,-3.6658,-3.6663,-3.67,-3.6678,-3.6703,-3.6696,-3.6675,-3.6678,-3.674,-3.6744,-3.6704,-3.6816,-3.6768,-3.6777,-3.681,-3.6824,-3.6836,-3.6832,-3.6649,0,0,0,0,0,-3.6609,-3.6643,-3.6646,-3.6705,-3.6714,-3.6706,-3.6724,-3.6711,-3.6726,-3.6732,-3.6735,-3.6751,-3.6783,-3.6804,-3.6834,-3.6908,-3.691,-3.6944,-3.6956,-3.6966,-3.6973,-3.7014,-3.7029,-3.6868,-3.6868,-3.6868,0,0,-3.6651,-3.6658,-3.6681,-3.6717,-3.6727,-3.6764,-3.6711,-3.6752,-3.678,-3.6738,-3.6792,-3.6796,-3.6813,-3.688,-3.6909,-3.6885,-3.7019,-3.6974,-3.6982,-3.6984,-3.7023,-3.7038,-3.7052,-3.6873,-3.6872,-3.6871,0,0,-3.6747,-3.6757,-3.6807,-3.6819,-3.6836,-3.6831,-3.6844,-3.6854,-3.6855,-3.691,-3.688,-3.6913,-3.6968,-3.6982,-3.6996,-3.7103,-3.7077,-3.7113,-3.7173,-3.7214,-3.7226,-3.7237,-3.7275,-3.7289,-3.7121,-3.7121,-3.7121,0,-3.6798,-3.6852,-3.6836,-3.6879,-3.6896,-3.6862,-3.6914,-3.6927,-3.6952,-3.6965,-3.6939,-3.7009,-3.7018,-3.7088,-3.7114,-3.7127,-3.7141,-3.711,-3.7226,-3.7237,-3.7247,-3.7283,-3.7297,-3.7126,-3.7125,-3.7125,-3.7124,0,-3.6913,-3.6952,-3.6991,-3.7017,-3.7039,-3.7087,-3.7079,-3.7103,-3.709,-3.7088,-3.7146,-3.7156,-3.7187,-3.7204,-3.719,-3.7273,-3.7258,-3.7229,-3.718,-3.7267,-3.73,-3.7314,-3.7132,-3.713,-3.7129,-3.7128,0,0,-3.7042,-3.7063,-3.7077,-3.7089,-3.7108,-3.7137,-3.7185,-3.7217,-3.7238,-3.7259,-3.7298,-3.7348,-3.7322,-3.7339,-3.7327,-3.7363,-3.7447,-3.733,-3.733,-3.735,-3.754,-3.756,-3.7576,-3.7432,-3.7434,-3.7436,-3.7538,0,-3.7138,-3.7218,-3.7207,-3.7285,-3.7321,-3.7291,-3.7333,-3.7349,-3.7351,-3.7382,-3.7384,-3.7419,-3.7383,-3.7393,-3.7427,-3.7429,-3.7485,-3.7422,-3.7468,-3.747,-3.7462,-3.7593,-3.7614,-3.7709,-3.7551,-3.7554,-3.7555,0,-3.7258,-3.7284,-3.7365,-3.7381,-3.7395,-3.7432,-3.7462,-3.7492,-3.7512,-3.751,-3.7531,-3.7514,-3.7563,-3.7516,-3.7583,-3.7541,-3.756,-3.7564,-3.7568,-3.7569,-3.7516,-3.7597,-3.7739,-3.7753,-3.7576,-3.7574,-3.7572,0,-3.7343,-3.7399,-3.7455,-3.7467,-3.7486,-3.7513,-3.7522,-3.7539,-3.756,-3.7586,-3.76,-3.7632,-3.7649,-3.7675,-3.7668,-3.7634,-3.7737,-3.7689,-3.7737,-3.7738,-3.7758,-3.7756,-3.7903,-3.7773,-3.7773,-3.7773,-3.7773,0,-3.7449,-3.75,-3.7493,-3.7528,-3.7585,-3.7573,-3.763,-3.7636,-3.7652,-3.7688,-3.7666,-3.77,-3.769,-3.7724,-3.7719,-3.7776,-3.7785,-3.7785,-3.7783,-3.7786,-3.7786,-3.7796,-3.7788,-3.7777,-3.7776,-3.7775,-3.7775,0,-3.7551,-3.7549,-3.7609,-3.7624,-3.7629,-3.767,-3.7683,-3.7716,-3.7718,-3.7764,-3.7774,-3.7776,-3.7816,-3.7812,-3.7856,-3.7853,-3.7924,-3.7915,-3.7917,-3.7914,-3.7962,-3.7958,-3.8119,-3.814,-3.7999,-3.8,-3.8001,0,-3.7618,-3.7656,-3.7676,-3.7699,-3.7711,-3.7747,-3.7769,-3.7761,-3.7784,-3.7811,-3.7842,-3.788,-3.7909,-3.7975,-3.798,-3.8015,-3.8006,-3.806,-3.801,-3.8013,-3.8005,-3.8002,-3.8006,-3.8069,-3.8071,-3.8072,-3.8073,0,-3.7736,-3.7734,-3.7766,-3.7799,-3.7825,-3.7851,-3.7874,-3.7894,-3.7888,-3.7916,-3.7957,-3.798,-3.8027,-3.8066,-3.8099,-3.811,-3.8091,-3.809,-3.8102,-3.8104,-3.8104,-3.8104,-3.7942,-3.8085,-3.8084,-3.8083,-3.8082,-3.8082,-3.7822,-3.7855,-3.7875,-3.7912,-3.7929,-3.7952,-3.7985,-3.7991,-3.8025,-3.8062,-3.8056,-3.8102,-3.8124,-3.8167,-3.8182,-3.8219,-3.8199,-3.8218,-3.8222,-3.8226,-3.8232,-3.8101,-3.8225,-3.8225,-3.8224,-3.8224,-3.8224,0,-3.7938,-3.795,-3.7984,-3.8018,-3.8048,-3.803,-3.8055,-3.8081,-3.8122,-3.8144,-3.8175,-3.8223,-3.8261,-3.8272,-3.8309,-3.8337,-3.8329,-3.8347,-3.8343,-3.8346,-3.8247,-3.8232,-3.8352,-3.8352,-3.8352,-3.8352,-3.8352,-3.8352,-3.8001,-3.8057,-3.8059,-3.8124,-3.8136,-3.8181,-3.8198,-3.822,-3.8237,-3.8292,-3.8324,-3.8331,-3.8349,-3.8388,-3.8423,-3.8425,-3.844,-3.8461,-3.8459,-3.8366,-3.8353,-3.8341,-3.8326,-3.8464,-3.8464,-3.8555,-3.8556,-3.8557]},{"header":{"parameterUnit":"m.s-1","parameterCategory":1,"la1":30.2991,"la2":30.254,"lo1":-89.0895,"lo2":-89.0444,"dy":0.0017,"dx":0.0017,"nx":28,"ny":28,"refTime":"2023-10-03T21:00:00:Z","depth":0,"parameterNumber":3,"parameterNumberName":"V-component_of_WINDS"},"data":[0,0,0,0,0,0,0,0,0,0,0,0,0,0,0,0,0,0,0,0,0,0,0,0,0,0,0,0,0,0,0,0,0,0,0,0,0,0,0,0,0,0,0,0,0,0,0,0,0,0,0,0,0,0,0,0,0,0,3.5516,3.5516,0,3.5523,3.5523,3.5523,3.5554,3.5554,3.5555,3.5556,3.5558,3.5557,3.5557,0,0,0,0,0,0,0,0,0,0,0,0,0,3.5524,3.5524,3.5516,3.5516,3.5516,3.5523,3.5523,3.5523,3.5553,3.5554,3.5555,3.5556,3.5558,3.5557,3.5557,0,0,0,0,0,0,0,0,0,0,0,0,0,3.5525,3.5524,3.5516,3.5532,3.5534,3.5523,3.5523,3.5523,3.5553,3.5554,3.5555,3.5556,3.5558,3.5557,3.5556,3.5529,0,0,3.5554,3.5553,0,0,0,0,0,0,0,0,3.5525,3.5525,3.553,3.5531,3.5533,3.5539,3.5527,3.5525,3.5553,3.5546,3.5556,3.5557,3.555,3.555,3.5549,3.5529,3.553,3.5554,3.5553,3.5553,3.5552,0,0,0,0,0,0,0,3.5525,3.5524,3.5519,3.553,3.5531,3.5538,3.5539,3.5527,3.5542,3.5546,3.5549,3.5549,3.5551,3.555,3.5549,3.553,3.5554,3.5553,3.5552,3.5552,3.549,3.5489,0,0,0,0,0,0,3.5523,3.5524,3.5518,3.5519,3.5532,3.5537,3.5538,3.5536,3.5542,3.5544,3.5548,3.5551,3.5551,3.555,3.5549,3.5519,3.5553,3.5552,3.5551,3.5491,3.549,3.5488,0,0,0,0,0,0,3.5523,3.5522,3.5518,3.5522,3.5522,3.5536,3.5532,3.5535,3.5534,3.5544,3.5546,3.5544,3.5552,3.5551,3.5535,3.552,3.5551,3.5551,3.5492,3.5491,3.5489,3.5458,0,0,0,0,0,0,3.5523,3.5522,3.5513,3.5522,3.5522,3.5504,3.5531,3.5535,3.5533,3.5536,3.554,3.5542,3.5552,3.5536,3.5534,3.5519,3.555,3.5494,3.5492,3.549,3.546,3.5455,3.5451,0,0,0,0,0,3.5523,3.5502,3.5512,3.5511,3.5511,3.5504,3.5503,3.5517,3.5531,3.5522,3.5528,3.5542,3.5522,3.5534,3.5532,3.5516,3.5495,3.5492,3.549,3.5462,3.5456,3.5451,0,0,0,0,0,0,3.5488,3.5503,3.5515,3.5496,3.5499,3.5509,3.5497,3.551,3.5507,3.551,3.5526,3.5526,3.5508,3.5511,3.5524,3.5491,3.5511,3.5508,3.5491,3.5485,3.548,3.548,3.5549,0,0,0,0,0,3.5479,3.5473,3.5486,3.5468,3.5469,3.5483,3.548,3.5491,3.5493,3.5494,3.5499,3.55,3.5494,3.549,3.5484,3.5461,3.5463,3.5449,3.5445,3.5441,3.5438,3.5427,3.5421,3.548,3.548,3.548,0,0,3.5458,3.5466,3.5461,3.5461,3.5465,3.5458,3.5483,3.5474,3.5469,3.5492,3.5478,3.5482,3.5484,3.5465,3.5457,3.5466,3.5422,3.5438,3.5435,3.5434,3.5424,3.5418,3.5413,3.5479,3.5479,3.5479,0,0,3.5417,3.5422,3.5409,3.5413,3.5418,3.5428,3.5424,3.5433,3.5437,3.5424,3.5442,3.5435,3.5424,3.5426,3.5425,3.5387,3.5399,3.5384,3.536,3.5349,3.5345,3.534,3.5328,3.5323,3.5381,3.5381,3.5381,0,3.539,3.5382,3.54,3.5391,3.5391,3.5414,3.54,3.5402,3.5404,3.5403,3.5415,3.5403,3.5406,3.5388,3.5379,3.5377,3.5374,3.5384,3.5344,3.534,3.5337,3.5324,3.5319,3.538,3.538,3.538,3.538,0,3.5349,3.5343,3.5332,3.5337,3.5335,3.5323,3.5338,3.5334,3.5346,3.5354,3.5341,3.5345,3.5342,3.5339,3.5348,3.5322,3.5328,3.5342,3.5361,3.5329,3.5318,3.5313,3.5377,3.5378,3.5378,3.5379,0,0,3.5285,3.5302,3.5297,3.5301,3.5309,3.5304,3.5294,3.5293,3.529,3.5291,3.5283,3.5274,3.5287,3.5286,3.5297,3.5287,3.5258,3.5302,3.5302,3.5294,3.523,3.522,3.5215,3.5267,3.5266,3.5265,3.523,0,3.5247,3.5232,3.5248,3.5229,3.5224,3.5247,3.5238,3.5242,3.5249,3.5245,3.5253,3.5247,3.5265,3.5264,3.5256,3.5263,3.5245,3.5266,3.5258,3.5258,3.5257,3.5209,3.5198,3.5164,3.5226,3.5225,3.5225,0,3.52,3.5203,3.5184,3.5195,3.5194,3.5186,3.5187,3.5183,3.5188,3.5194,3.5194,3.5208,3.5198,3.5218,3.5204,3.5218,3.5216,3.5219,3.5218,3.5217,3.5239,3.5207,3.5154,3.5149,3.5218,3.5218,3.5219,0,3.5157,3.5154,3.5143,3.5145,3.5158,3.5152,3.5157,3.5163,3.5162,3.5163,3.5163,3.5161,3.516,3.5159,3.5172,3.5185,3.5156,3.5177,3.5161,3.5161,3.5154,3.5154,3.51,3.5152,3.5152,3.5152,3.5152,0,3.5112,3.51,3.5124,3.5117,3.5104,3.5123,3.5109,3.5116,3.5122,3.5116,3.5135,3.5129,3.5146,3.5141,3.5151,3.5139,3.5138,3.5142,3.5145,3.5141,3.514,3.5139,3.5142,3.5151,3.5151,3.5151,3.5152,0,3.5061,3.5077,3.5066,3.5081,3.5084,3.5074,3.5085,3.5079,3.5089,3.5082,3.5081,3.5095,3.5091,3.5104,3.5101,3.5108,3.509,3.5097,3.5089,3.5091,3.5075,3.5076,3.5018,3.5012,3.5068,3.5067,3.5067,0,3.5032,3.5024,3.5038,3.5037,3.5041,3.5038,3.5038,3.5056,3.5055,3.5061,3.5054,3.5052,3.5052,3.5044,3.5054,3.5052,3.5058,3.5038,3.5058,3.5055,3.5059,3.5059,3.5059,3.5034,3.5033,3.5033,3.5032,0,3.4979,3.4988,3.4988,3.4991,3.4991,3.4994,3.4997,3.4995,3.5014,3.5012,3.5009,3.5009,3.5008,3.5006,3.5007,3.501,3.5024,3.5026,3.5023,3.5018,3.5015,3.5017,3.5078,3.5027,3.5028,3.5028,3.5028,3.5029,3.4939,3.4933,3.4943,3.4942,3.4948,3.4951,3.4947,3.4957,3.4956,3.4957,3.4968,3.4963,3.4969,3.4972,3.4975,3.4971,3.498,3.4975,3.4973,3.4972,3.4969,3.5015,3.4971,3.4971,3.4971,3.4972,3.4972,0,3.4888,3.4895,3.4895,3.4901,3.4901,3.4916,3.4922,3.492,3.4917,3.4922,3.4922,3.4919,3.4918,3.4928,3.4928,3.4923,3.4929,3.4922,3.4922,3.4923,3.4961,3.4964,3.4917,3.4917,3.4917,3.4917,3.4917,3.4917,3.4861,3.4852,3.4862,3.4856,3.4864,3.4861,3.4863,3.4867,3.4871,3.4868,3.4868,3.4875,3.4883,3.4883,3.4882,3.4885,3.4884,3.4875,3.488,3.4915,3.492,3.4926,3.4929,3.4875,3.4875,3.4843,3.4843,3.4843]}]]